Grand Junction, CO

1:08 AM MDT on July 27, 2016 (GMT -0600)
Walker

Weather History for KGJT - September, 2012

Change the Weather History Date:

Saturday, September 1, 2012

  Actual Average Record
Temperature  
Mean Temperature 77 °F 72 °F  
Max Temperature 90 °F 86 °F 99 °F (1995)
Min Temperature 64 °F 58 °F 47 °F (1962)
Degree Days  
Heating Degree Days 0 0  
Month to date heating degree days 0 0  
Since 1 July heating degree days 0 3  
Cooling Degree Days 12 7  
Month to date cooling degree days 12 7  
Year to date cooling degree days 1411 1026  
Growing Degree Days 27 (Base 50)    
Moisture  
Dew Point 48 °F    
Average Humidity 41    
Maximum Humidity 63    
Minimum Humidity 19    
Precipitation  
Precipitation T in 0.04 in 0.50 in (1937)
Month to date precipitation T 0.04  
Year to date precipitation 2.56 5.89  
Snow  
Snow 0.00 in 0.00 in 0.00 in (2014)
Month to date snowfall 0.0 0.0  
Since 1 July snowfall 0.0 0.0  
Since 1 September snowfall 0.0 0.0  
Snow Depth 0.00 in    
Sea Level Pressure  
Sea Level Pressure 29.92 in    
Wind  
Wind Speed 7 mph (ESE)    
Max Wind Speed 30 mph    
Max Gust Speed 36 mph    
Visibility 10 miles    
Events Rain , Thunderstorm    
T = Trace of Precipitation, MM = Missing Value Source: NWS Daily Summary

Daily Weather History Graph

Daily Weather History Graph

Search for Another Location

Airport or City:

Trip Planner

Search our weather history database for the weather conditions in past years. The results will help you decide how hot, cold, wet, or windy it might be!

Date:

Astronomy

Sep. 01, 2012 Rise Set
Actual Time 6:43 AM MDT 7:43 PM MDT
Civil Twilight 6:15 AM MDT 8:11 PM MDT
Nautical Twilight 5:43 AM MDT 8:43 PM MDT
Astronomical Twilight 5:09 AM MDT 9:17 PM MDT
Moon 8:03 PM MDT (9/1) 7:53 AM MDT (9/1)
Length of Visible Light 13h 55m
Length of Day
13h 00m
Full, 98% of the Moon is Illuminated
Sep 1
Full
Sep 8
Last Quarter
Sep 15
New
Sep 22
First Quarter
Sep 29
Full

Hourly Weather History & Observations

Time (MDT) Temp. Dew Point Humidity Pressure Visibility Wind Dir Wind Speed Gust Speed Precip Events Conditions
12:53 AM 66.9 °F 46.9 °F 49% 29.89 in 10.0 mi East 5.8 mph - N/A   Clear
1:53 AM 68.0 °F 48.0 °F 49% 29.89 in 10.0 mi East 3.5 mph - N/A   Partly Cloudy
2:53 AM 66.9 °F 48.0 °F 51% 29.88 in 10.0 mi Calm Calm - N/A   Clear
3:53 AM 66.9 °F 48.9 °F 52% 29.88 in 10.0 mi ESE 9.2 mph - N/A   Clear
4:53 AM 66.9 °F 48.9 °F 52% 29.89 in 10.0 mi ESE 4.6 mph - N/A   Clear
5:53 AM 66.9 °F 48.9 °F 52% 29.89 in 10.0 mi SSE 8.1 mph - N/A   Partly Cloudy
6:53 AM 66.0 °F 50.0 °F 56% 29.92 in 10.0 mi East 8.1 mph - N/A   Scattered Clouds
7:53 AM 68.0 °F 48.9 °F 50% 29.94 in 10.0 mi ESE 5.8 mph - N/A   Partly Cloudy
8:53 AM 71.1 °F 51.1 °F 49% 29.96 in 10.0 mi ESE 9.2 mph - N/A   Clear
9:53 AM 75.9 °F 46.9 °F 36% 29.95 in 10.0 mi SE 11.5 mph - N/A   Clear
10:53 AM 79.0 °F 48.9 °F 35% 29.96 in 10.0 mi Calm Calm - N/A   Clear
11:53 AM 82.9 °F 46.9 °F 28% 29.95 in 10.0 mi Calm Calm - N/A   Clear
12:53 PM 82.9 °F 48.0 °F 29% 29.93 in 10.0 mi West 5.8 mph - 0.00 in Rain Light Rain
1:53 PM 87.1 °F 46.9 °F 25% 29.89 in 10.0 mi NNE 4.6 mph - 0.00 in   Scattered Clouds
2:53 PM 87.1 °F 46.0 °F 24% 29.86 in 10.0 mi Variable 3.5 mph - N/A   Mostly Cloudy
3:53 PM 87.1 °F 44.1 °F 22% 29.82 in 10.0 mi North 4.6 mph - N/A   Mostly Cloudy
4:53 PM 89.1 °F 43.0 °F 20% 29.80 in 10.0 mi Variable 3.5 mph - N/A   Scattered Clouds
5:53 PM 90.0 °F 43.0 °F 19% 29.78 in 10.0 mi SSW 16.1 mph 24.2 mph N/A   Mostly Cloudy
6:02 PM 89.6 °F 42.8 °F 20% 30.01 in 10.0 mi South 15.0 mph 24.2 mph N/A   Mostly Cloudy
6:53 PM 88.0 °F 41.0 °F 19% 29.79 in 10.0 mi SSW 15.0 mph - N/A   Mostly Cloudy
7:53 PM 78.1 °F 48.9 °F 36% 29.84 in 10.0 mi WNW 23.0 mph 26.5 mph N/A   Mostly Cloudy
8:00 PM 77.0 °F 48.2 °F 36% 30.06 in 10.0 mi West 20.7 mph 27.6 mph N/A   Mostly Cloudy
8:53 PM 71.6 °F 50.0 °F 46% 29.91 in 10.0 mi West 10.4 mph - N/A   Scattered Clouds
9:53 PM 73.0 °F 48.9 °F 42% 29.97 in 10.0 mi NE 9.2 mph - N/A Thunderstorm Overcast
10:22 PM 71.6 °F 53.6 °F 53% 30.17 in 10.0 mi NNW 17.3 mph - N/A   Mostly Cloudy
10:53 PM 69.1 °F 54.0 °F 58% 29.97 in 10.0 mi North 9.2 mph - N/A   Scattered Clouds
11:53 PM 66.0 °F 54.0 °F 65% 29.98 in 10.0 mi WNW 5.8 mph - 0.00 in   Scattered Clouds